Date String (YYYY-MM-DD hh:mm:ss) UTC,Instrument flags,Ambient pressure (hPa),Sample flow (lpm),Bypass flow (lpm),Sample temperature (°C),Ambient temperature (°C),ASC tube jacket temperature (°C),LED temperature (°C),Box temperature (°C),Sample RH (%),Span deviation,Mass concentration (μg/m³),Mass concentration (μg/m³),Mass concentration (μg/m³)
DateTimeUTC,F1_M11,P_M11,Q1_M11,Q2_M11,T1_M11,T2_M11,T3_M11,T4_M11,T5_M11,U1_M11,ZSPAN_M11,X0_M11,X2_M11,X1_M11
2022-10-02 03:00:00,,0829.0,5.00,0.00,30.0,28.6,00.0,38.7,31.9,22.5,0000.0,0005.92,0002.70,0002.25
2022-10-02 03:01:00,,0829.0,4.99,0.00,30.0,28.7,00.0,38.7,31.9,22.5,0000.0,0005.92,0002.71,0002.27
2022-10-02 03:02:00,,0829.0,5.01,0.00,30.0,28.7,00.0,38.8,31.9,22.5,0000.0,0006.03,0002.76,0002.29
2022-10-02 03:03:00,,0829.0,5.00,0.00,30.0,28.7,00.0,38.8,31.9,22.4,0000.0,0005.91,0002.77,0002.33
2022-10-02 03:04:00,,0829.0,5.01,0.00,30.1,28.7,00.0,38.8,31.9,22.4,0000.0,0005.70,0002.81,0002.34
2022-10-02 03:05:00,,0829.0,4.99,0.00,30.1,28.7,00.0,38.8,31.9,22.2,0000.0,0006.11,0002.85,0002.38
2022-10-02 03:06:00,,0829.0,5.01,0.00,30.1,28.7,00.0,38.8,31.9,22.3,0000.0,0006.26,0002.89,0002.41
2022-10-02 03:07:00,,0829.0,4.99,0.00,30.1,28.7,00.0,38.8,31.9,22.3,0000.0,0006.15,0002.93,0002.43
2022-10-02 03:08:00,,0829.0,5.01,0.00,30.1,28.7,00.0,38.8,31.9,22.2,0000.0,0006.06,0002.99,0002.46
2022-10-02 03:09:00,,0829.0,5.00,0.00,30.1,28.7,00.0,38.8,31.9,22.2,0000.0,0006.15,0003.06,0002.48
2022-10-02 03:10:00,,0829.0,5.00,0.00,30.1,28.7,00.0,38.8,31.9,22.6,0000.0,0005.68,0003.09,0002.48
2022-10-02 03:11:00,,0828.9,5.00,0.00,30.1,28.7,00.0,38.8,31.9,22.2,0000.0,0005.73,0003.09,0002.47
2022-10-02 03:12:00,,0828.9,5.01,0.00,30.1,28.7,00.0,38.8,31.9,21.8,0000.0,0005.76,0003.10,0002.46
2022-10-02 03:13:00,,0828.9,4.99,0.00,30.1,28.7,00.0,38.8,32.0,21.7,0000.0,0005.61,0003.06,0002.44
2022-10-02 03:14:00,,0828.9,5.01,0.00,30.1,28.7,00.0,38.8,32.0,21.7,0000.0,0005.59,0003.04,0002.42
2022-10-02 03:15:00,,0828.9,4.99,0.00,30.1,28.7,00.0,38.8,32.0,21.7,0000.0,0005.53,0003.02,0002.42
2022-10-02 03:16:00,,0828.8,5.00,0.00,30.1,28.7,00.0,38.8,32.0,21.6,0000.0,0005.09,0003.00,0002.40
2022-10-02 03:17:00,,0828.9,5.00,0.00,30.1,28.7,00.0,38.9,32.0,21.7,0000.0,0004.97,0002.97,0002.39
2022-10-02 03:18:00,,0828.8,4.99,0.00,30.1,28.7,00.0,38.9,32.0,22.3,0000.0,0004.80,0002.91,0002.38
2022-10-02 03:19:00,,0828.8,5.01,0.00,30.1,28.7,00.0,38.9,32.0,22.1,0000.0,0004.67,0002.86,0002.36
2022-10-02 03:20:00,,0829.2,5.00,0.00,30.1,28.7,00.0,38.9,32.0,21.9,0000.0,0004.76,0002.82,0002.35
2022-10-02 03:21:00,,0828.8,4.99,0.00,30.1,28.7,00.0,38.9,32.0,21.8,0000.0,0004.68,0002.83,0002.35
2022-10-02 03:22:00,,0828.8,5.02,0.00,30.2,28.7,00.0,38.9,32.0,22.0,0000.0,0004.76,0002.89,0002.36
2022-10-02 03:23:00,,0828.8,5.00,0.00,30.2,28.7,00.0,38.9,32.0,22.2,0000.0,0004.80,0002.89,0002.38
2022-10-02 03:24:00,,0828.8,4.99,0.00,30.2,28.8,00.0,38.9,32.0,22.5,0000.0,0004.84,0002.90,0002.39
2022-10-02 03:25:00,,0828.8,5.01,0.00,30.2,28.7,00.0,38.9,32.0,22.4,0000.0,0004.96,0002.92,0002.40
2022-10-02 03:26:00,,0828.8,5.00,0.00,30.2,28.8,00.0,38.9,32.0,22.7,0000.0,0005.15,0002.98,0002.39
2022-10-02 03:27:00,,0828.9,4.99,0.00,30.2,28.8,00.0,38.9,32.0,22.8,0000.0,0005.36,0003.03,0002.39
2022-10-02 03:28:00,,0828.9,5.01,0.00,30.2,28.8,00.0,38.9,32.0,22.7,0000.0,0005.33,0003.05,0002.38
2022-10-02 03:29:00,,0828.9,4.99,0.00,30.2,28.8,00.0,38.9,32.0,22.6,0000.0,0005.36,0003.07,0002.37
2022-10-02 03:30:00,,0829.0,5.01,0.00,30.2,28.8,00.0,38.9,32.0,22.6,0000.0,0005.06,0003.05,0002.36
2022-10-02 03:31:00,,0829.0,5.01,0.00,30.2,28.8,00.0,38.9,32.0,22.6,0000.0,0004.75,0003.04,0002.35
2022-10-02 03:32:00,,0829.0,4.99,0.00,30.2,28.7,00.0,39.0,32.0,22.4,0000.0,0004.69,0003.05,0002.35
2022-10-02 03:33:00,,0829.0,5.01,0.00,30.2,28.7,00.0,38.9,32.0,22.1,0000.0,0004.82,0003.03,0002.34
2022-10-02 03:34:00,,0829.0,4.99,0.00,30.2,28.7,00.0,38.9,32.0,22.2,0000.0,0004.78,0003.01,0002.31
2022-10-02 03:35:00,,0829.0,4.99,0.00,30.2,28.7,00.0,39.0,32.0,22.2,0000.0,0004.74,0002.98,0002.29
2022-10-02 03:36:00,,0828.9,5.01,0.00,30.2,28.7,00.0,39.0,32.0,22.2,0000.0,0004.66,0002.95,0002.28
2022-10-02 03:37:00,,0828.9,5.00,0.00,30.2,28.7,00.0,39.0,32.0,22.3,0000.0,0004.47,0002.88,0002.26
2022-10-02 03:38:00,,0828.9,4.98,0.00,30.2,28.8,00.0,39.0,32.0,22.6,0000.0,0004.63,0002.85,0002.25
2022-10-02 03:39:00,,0828.9,5.01,0.00,30.2,28.8,00.0,39.0,32.0,22.7,0000.0,0004.67,0002.85,0002.23
2022-10-02 03:40:00,,0828.9,5.00,0.00,30.2,28.8,00.0,39.0,32.0,22.5,0000.0,0004.58,0002.81,0002.21
2022-10-02 03:41:00,,0828.9,4.99,0.00,30.2,28.8,00.0,39.0,32.0,22.2,0000.0,0004.58,0002.80,0002.20
2022-10-02 03:42:00,,0828.9,5.01,0.00,30.2,28.8,00.0,39.0,32.0,22.1,0000.0,0004.83,0002.78,0002.19
2022-10-02 03:43:00,,0829.0,4.99,0.00,30.2,28.8,00.0,39.0,32.0,22.1,0000.0,0004.78,0002.74,0002.15
2022-10-02 03:44:00,,0829.0,5.00,0.00,30.2,28.8,00.0,39.0,32.0,22.1,0000.0,0004.56,0002.69,0002.13
2022-10-02 03:45:00,,0829.0,5.01,0.00,30.2,28.7,00.0,39.0,32.0,22.2,0000.0,0004.45,0002.64,0002.10
2022-10-02 03:46:00,,0829.1,5.00,0.00,30.2,28.7,00.0,39.0,32.0,22.2,0000.0,0004.43,0002.62,0002.08
2022-10-02 03:47:00,,0829.1,5.00,0.00,30.2,28.8,00.0,39.0,32.0,22.5,0000.0,0004.38,0002.60,0002.07
2022-10-02 03:48:00,,0829.1,5.00,0.00,30.2,28.8,00.0,39.0,32.1,22.5,0000.0,0004.58,0002.65,0002.09
2022-10-02 03:49:00,,0829.1,5.00,0.00,30.2,28.8,00.0,39.0,32.1,22.4,0000.0,0004.28,0002.61,0002.08
2022-10-02 03:50:00,,0829.1,5.00,0.00,30.2,28.7,00.0,39.0,32.0,22.3,0000.0,0004.08,0002.54,0002.06
2022-10-02 03:51:00,,0829.1,5.00,0.00,30.2,28.8,00.0,39.0,32.0,22.4,0000.0,0004.08,0002.53,0002.04
2022-10-02 03:52:00,,0829.0,4.99,0.00,30.2,28.8,00.0,39.0,32.0,22.4,0000.0,0004.12,0002.56,0002.02
2022-10-02 03:53:00,,0829.0,5.01,0.00,30.2,28.8,00.0,39.0,32.1,22.4,0000.0,0003.95,0002.57,0002.00
2022-10-02 03:54:00,,0829.0,4.99,0.00,30.2,28.7,00.0,39.0,32.1,22.5,0000.0,0003.93,0002.53,0001.99
2022-10-02 03:55:00,,0829.0,5.01,0.00,30.2,28.8,00.0,39.0,32.1,22.5,0000.0,0003.81,0002.46,0001.98
2022-10-02 03:56:00,,0829.0,5.01,0.00,30.2,28.8,00.0,39.0,32.1,22.5,0000.0,0005.28,0002.47,0001.98
2022-10-02 03:57:00,,0829.0,4.99,0.00,30.2,28.8,00.0,39.0,32.1,22.5,0000.0,0005.49,0002.48,0001.96
2022-10-02 03:58:00,,0829.0,5.01,0.00,30.3,28.8,00.0,39.0,32.1,22.5,0000.0,0006.39,0002.49,0001.94
2022-10-02 03:59:00,,0829.1,4.98,0.00,30.2,28.8,00.0,39.0,32.1,22.5,0000.0,0006.15,0002.43,0001.89
